Location: Gdynia
(54.5193°N, 18.5395°E)
Time: 10:42:58
(UTC+02:00)

ISS - Pass Details

Date: 26 January 2019
Orbit: 411 x 421 km, 51.6° (Epoch: 18 October)

Event Time Altitude Azimuth Distance (km) Brightness Sun altitude
Rises 19:17:36 0° 253° (WSW) 2,418 1.2 -26.5°
Reaches altitude 10° 19:19:44 10° 248° (WSW) 1,552 -0.1 -26.8°
Enters shadow 19:21:09 22° 240° (WSW) 1,018 -1.3 -27.0°
